Hourly Weather Roundup
Issued by NWS

Home | Current Version | Previous Version | Text Only | Print | Product List | Glossary On
Versions: 1 2 3 4 5 6 7 8 9 10 11 12 13 14 15 16 17 18 19 20 21 22 23 24 25 26 27 28 29 30 31 32 33 34 35 36 37 38 39 40 41 42 43 44 45 46 47 48 49 50
701
NZUS43 KILX 120510
HWRCRS

CRS HOURLY WEATHER ROUNDUP
NATIONAL WEATHER SERVICE, LINCOLN IL
1100 PM CST THU FEB 11 2016


CITY           SKY/WX    TMP DP  RH WIND       PRES   REMARKS
CHAMPAIGN      CLOUDY    21  13  71 CALM      30.27F
LAWRENCEVILLE  CLOUDY    25  12  58 CALM      30.30S
PEORIA         CLOUDY    24  10  55 SW6       30.27F WCI  17
SPRINGFIELD    CLOUDY    26  13  57 S5        30.28F WCI  20
$$


CITY           SKY/WX    TMP DP  RH WIND       PRES   REMARKS
BLOOMINGTON    CLOUDY    22  13  68 S7        30.26F WCI  14
DECATUR        MOCLDY    23  10  57 S3        30.27F
EFFINGHAM      CLOUDY    25  14  64 CALM      30.29F
FLORA          CLOUDY    27  14  57 E5        30.27F WCI  22
GALESBURG      CLOUDY    23  13  66 SW6       30.25S WCI  15
JACKSONVILLE   CLOUDY    26  16  64 CALM      30.26F
LACON          CLOUDY    22  10  59 CALM      30.26F
LINCOLN        CLOUDY    25  13  59 S3        30.27F
LITCHFIELD     FLURRIES  24  14  65 E3        30.26S

CITY           SKY/WX    TMP DP  RH WIND       PRES   REMARKS
MACOMB         CLOUDY    23  17  77 SW6       30.28F WCI  16
MATTOON        CLOUDY    21  10  62 CALM      30.26F
MOLINE         CLOUDY    22   9  57 CALM      30.26S
OLNEY          CLOUDY    27  14  59 E5        30.28F WCI  21
PARIS          CLOUDY    22  13  68 CALM      30.30S
PONTIAC        CLOUDY    22  16  79 S5        30.28F WCI  15
QUINCY         CLOUDY    20  16  84 E9        30.24F WCI   9
RANTOUL        CLOUDY    23  11  60 CALM      30.26F
ROBINSON       MOCLDY    24  12  60 CALM      30.31F
TAYLORVILLE    CLOUDY    25  12  58 SE3       30.27S
TERRE HAUTE    PTCLDY    22  14  71 CALM      30.29F
$$


CITY           SKY/WX    TMP DP  RH WIND       PRES   REMARKS
BURLINGTON     CLOUDY    21  18  88 SW6       30.25F WCI  13
CHICAGO        CLOUDY    18   7  62 W5        30.25F WCI  11
DES MOINES     FLURRIES  18  13  80 E5        30.24F WCI  11
EVANSVILLE     CLOUDY    29  16  58 CALM      30.30R
INDIANAPOLIS   CLOUDY    20  10  65 SW3       30.26F
KANSAS CITY    PTCLDY    28  20  71 E7        30.17F WCI  21
MILWAUKEE      CLOUDY    16   1  51 W7        30.22F WCI   6
ST LOUIS       CLOUDY    29  13  51 SE5       30.27S WCI  24
$$





USA.gov is the U.S. government's official web portal to all federal, state and local government web resources and services.